CAPE
0 0 0 0 0 0 0 0 0 0 0 0 0 0 0 0 0 0 0 0 0 0 0 0 0 0 0 0 0 0 0 0 0 0 0 0 0 0 0 0 0 0 0
0 0 0 0 0 0 0 0 0 0 0 0 0 0 0 0 0 0 0 0 0 0 0 0 0 0 0 0 0 0 0 0 0 0 0 0 0 0 0 0 0 0 0
0 0 0 0 0 0 0 0 0 0 0 0 0 0 0 0 0 0 0 0 0 0 0 0 0 0 0 0 0 0 0 0 0 0 0 0 0 0 0 0 0 0 0
0 0 0 0 0 0 0 0 0 0 0 0 0 0 0 0 0 0 0 0 0 0 0 0 0 0 0 0 0 0 0 0 0 0 0 0 0 0 0 0 0 0 0
0 0 0 0 0 0 0 0 0 0 0 0 0 0 0 0 0 0 0 0 0 0 0 0 0 0 0 0 0 0 0 0 0 0 0 0 0 0 0 0 0 0 0
0 0 0 0 0 0 0 0 0 0 0 0 0 0 0 0 0 0 0 0 0 0 0 0 0 0 0 0 0 0 0 0 0 0 0 0 0 0 0 0 0 0 0
0 0 0 0 0 0 0 0 0 0 0 0 0 0 0 0 0 0 0 0 0 0 0 0 0 0 0 0 0 0 0 0 2 2 1 0 0 0 0 0 0 0 0
0 0 0 0 0 0 0 0 0 0 0 0 0 0 0 0 0 0 0 0 0 0 0 2 4 1 0 0 0 0 1 1 0 0 3 2 0 0 0 0 0 0 0
0 0 0 0 0 0 0 0 0 0 0 0 0 0 0 0 0 0 0 0 1 0 0 0 1 1 0 0 0 0 0 0 1 5 4 2 1 2 0 0 0 0 0
0 0 0 0 0 0 0 0 0 0 0 0 0 0 0 0 0 0 0 0 0 0 0 1 0 0 1 2 0 0 1 0 0 3 3 0 5 5 10 2 0 0 0
0 0 0 0 0 0 0 0 0 0 0 0 0 0 0 0 0 0 0 0 0 0 0 0 1 0 0 0 0 0 1 7 2 6 6 2 0 2 4 11 2 0 0
0 0 0 0 0 0 0 0 0 0 0 0 0 0 0 0 0 0 0 0 2 0 0 0 0 0 0 0 0 0 8 5 0 13 22 8 5 0 0 1 1 1 0
0 0 0 0 0 0 0 0 0 0 0 0 0 0 0 0 0 0 0 0 0 0 0 0 1 1 0 0 0 0 0 0 0 6 18 24 6 2 0 0 0 0 1
0 0 0 0 0 0 0 0 0 0 0 0 0 0 0 0 0 0 0 0 0 0 0 0 0 0 0 0 0 0 1 0 2 6 6 30 27 8 0 0 0 1 0
0 0 0 0 0 0 0 0 0 0 0 0 0 0 0 0 0 5 6 3 3 6 18 6 1 0 0 0 0 0 0 0 2 0 8 19 23 11 0 0 0 0 0
0 0 0 0 0 0 0 0 0 0 0 0 2 2 0 5 6 14 17 18 20 24 13 7 3 0 0 0 0 0 0 0 0 0 1 0 2 1 0 0 0 0 0
0 0 0 0 0 0 0 0 0 0 0 0 0 0 0 4 2 5 11 6 1 0 0 0 0 0 0 0 0 0 0 0 0 0 0 0 0 6 1 0 0 0 0
0 0 0 0 0 0 0 0 0 0 0 0 0 0 0 0 0 2 1 0 0 0 0 0 0 0 1 0 0 0 0 0 0 0 0 1 5 1 0 0 0 0 0
0 0 0 0 0 0 0 0 0 0 0 0 0 0 0 0 0 0 0 0 0 0 0 0 0 0 0 0 0 0 0 0 0 0 1 0 8 0 0 0 0 0 0
0 0 0 0 0 0 0 0 0 0 0 0 0 0 0 0 0 0 0 0 0 0 0 0 0 0 0 0 0 0 0 0 0 0 0 0 0 0 0 0 0 0 0
0 0 0 0 0 0 0 0 0 0 0 0 0 0 0 0 0 0 0 0 0 0 0 0 0 0 0 0 0 0 0 0 0 0 0 0 0 0 0 0 0 0 0
0 0 0 0 0 0 0 0 0 0 0 0 0 0 0 0 0 0 0 0 0 0 0 0 0 0 0 0 0 0 0 0 0 0 0 0 0 0 0 0 0 0 0
0 0 0 0 0 0 0 0 0 0 0 0 0 0 0 0 0 0 0 0 0 0 0 0 0 0 0 0 0 0 0 0 0 0 0 0 0 0 0 0 0 0 0
0 0 0 0 0 0 0 0 0 0 0 0 0 0 0 0 0 0 0 0 0 0 0 0 0 0 0 0 0 0 0 0 0 0 0 0 0 0 0 0 0 0 0
0 0 0 0 0 0 0 0 0 0 0 0 0 0 0 0 0 0 0 0 0 0 0 0 0 0 0 0 0 0 0 0 0 0 0 0 0 0 0 0 0 0 0
0 0 0 0 0 0 0 0 0 0 0 0 0 0 0 0 0 0 0 0 0 0 0 0 0 0 0 0 0 0 0 0 0 0 0 0 0 0 0 0 0 0 0
CIN
0 0 0 0 0 0 0 0 0 0 0 0 0 0 0 0 0 0 0 0 0 0 0 0 0 0 0 0 0 0 0 0 0 0 0 0 0 0 0 0 0 0 0
0 0 0 0 0 0 0 0 0 0 0 0 0 0 0 0 0 0 0 0 0 0 0 0 0 0 0 0 0 0 0 0 0 0 0 0 0 0 0 0 0 0 0
0 0 0 0 0 0 0 0 0 0 0 0 0 0 0 0 0 0 0 0 0 0 0 0 0 0 0 0 0 0 0 0 0 0 0 0 0 0 0 0 0 0 0
0 0 0 0 0 0 0 0 0 0 0 0 0 0 0 0 0 0 0 0 0 0 0 0 0 0 0 0 0 0 0 0 0 0 0 0 0 0 0 0 0 0 0
0 0 0 0 0 0 0 0 0 0 0 0 0 0 0 0 0 0 0 0 0 0 0 0 0 0 0 0 0 0 0 0 0 0 0 0 0 0 0 0 0 0 0
0 0 0 0 0 0 0 0 0 0 0 0 0 0 0 0 0 0 0 0 0 0 0 0 0 0 0 0 0 0 0 0 0 0 0 0 0 0 0 0 0 0 0
0 0 0 0 0 0 0 0 0 0 0 0 0 0 0 0 0 0 0 0 0 0 0 0 0 0 0 0 0 -1 0 0 0 0 0 0 0 0 0 0 0 0 0
0 0 0 0 0 0 0 0 0 0 0 0 0 0 0 0 0 0 0 0 0 0 0 0 0 -1 -1 -1 0 0 -1 -1 0 0 0 0 -1 0 0 0 0 0 0
0 0 0 0 0 0 0 0 0 0 0 0 0 0 0 0 0 0 0 0 0 0 0 0 0 0 0 -1 -1 0 0 0 0 0 0 0 0 0 0 0 0 0 0
0 0 0 0 0 0 0 0 0 0 0 0 0 0 0 0 0 0 -1 0 0 0 0 0 0 -1 -2 -4 0 0 -1 0 0 0 -1 0 0 0 0 -1 0 0 0
0 0 0 0 0 0 0 0 0 0 0 0 0 0 0 0 0 0 0 -1 0 0 0 0 -1 0 0 0 -1 0 -6 0 -2 -2 -1 -2 -1 -1 0 0 -3 0 0
0 0 0 0 0 0 0 0 0 0 0 0 0 0 0 0 0 0 0 -2 -3 -5 0 0 0 0 0 -2 -5 -4 -3 -4 -1 -1 0 -1 -1 -2 -1 -1 -1 0 0
0 0 0 0 0 0 0 0 0 0 0 0 0 0 0 0 0 0 0 0 0 0 0 0 -4 -4 -1 -1 -1 -1 0 -1 0 0 0 -1 -2 -1 -3 0 0 0 0
0 0 0 0 0 0 0 0 0 0 0 0 0 0 0 0 0 0 0 0 0 0 0 0 0 0 0 -7 0 0 -7 0 -1 0 0 -1 -2 -4 -1 0 0 -1 0
0 0 0 0 0 0 0 0 0 0 0 0 0 0 0 0 0 -4 -3 -6 -2 -9 -3 -8 -1 0 0 0 0 0 0 -6 -1 0 0 -1 0 -9 0 0 0 -1 0
0 0 0 0 0 0 0 0 0 0 0 -1 -1 -3 0 -1 -2 -2 -2 -3 -4 -3 -3 -4 -4 -2 0 0 0 0 0 0 0 0 -2 -6 -2 -9 0 0 0 0 0
0 0 0 0 0 0 0 0 0 0 0 0 0 -1 -1 -1 -2 -2 -2 -3 -3 -1 0 0 0 0 0 0 0 0 0 0 0 0 0 0 0 0 -7 0 0 0 0
0 0 0 0 0 0 0 0 0 0 0 0 0 0 0 0 -1 -2 -1 0 0 0 0 0 0 0 -1 0 0 0 0 0 0 0 0 0 0 0 0 0 0 0 0
0 0 0 0 0 0 0 0 0 0 0 0 0 0 0 0 0 0 0 0 0 0 0 0 0 0 0 0 0 0 0 0 0 0 -1 -1 -2 0 0 0 0 0 0
0 0 0 0 0 0 0 0 0 0 0 0 0 0 0 0 0 0 0 0 0 0 0 0 0 0 0 0 0 0 0 0 0 0 0 -1 0 0 0 0 0 0 0
0 0 0 0 0 0 0 0 0 0 0 0 0 0 -1 0 0 0 0 0 0 0 0 0 0 0 0 0 0 0 0 0 0 0 0 0 0 0 0 0 0 0 0
0 0 0 0 0 0 0 0 0 0 0 0 0 0 0 0 0 0 0 0 0 0 0 0 0 0 0 0 0 0 0 0 0 0 0 0 0 0 0 0 0 0 0
0 0 0 0 0 0 0 0 0 0 0 0 0 0 0 0 0 0 0 0 0 0 0 0 0 0 0 0 0 0 0 0 0 0 0 0 0 0 0 0 0 0 0
0 0 0 0 0 0 0 0 0 0 0 0 0 0 0 0 0 0 0 0 0 0 0 0 0 0 0 0 0 0 0 0 0 0 0 0 0 0 0 0 0 0 0
0 0 0 0 0 0 0 0 0 0 0 0 0 0 0 0 0 0 0 0 0 0 0 0 0 0 0 0 0 0 0 0 0 0 0 0 0 0 0 0 0 0 0
0 0 0 0 0 0 0 0 0 0 0 0 0 0 0 0 0 0 0 0 0 0 0 0 0 0 0 0 0 0 0 0 0 0 0 0 0 0 0 0 0 0 0
Wind_Speed
30 32 33 35 36 37 39 40 41 41 42 44 45 45 46 46 46 45 45 45 46 47 45 44 44 43 45 46 45 46 47 47 59 57 49 45 44 42 40 38 38 37 37
30 32 34 35 37 39 41 42 43 45 44 46 48 49 49 50 50 49 50 49 49 50 49 49 47 44 45 44 45 48 48 47 53 61 52 50 47 44 43 42 40 39 38
30 33 36 37 40 42 43 44 45 47 49 50 51 53 53 54 55 54 54 55 54 53 52 52 51 50 49 46 46 47 47 47 49 56 58 50 48 43 43 43 43 41 40
32 35 38 40 41 44 46 47 48 48 51 53 54 56 57 56 56 57 58 58 58 57 56 55 54 53 54 52 50 49 49 50 49 53 57 55 51 46 44 46 46 43 44
34 37 39 41 43 45 47 48 49 51 53 55 57 58 58 59 58 59 59 61 62 63 61 58 57 56 57 56 55 55 52 52 52 52 54 53 54 51 51 45 48 46 46
34 37 39 42 44 45 46 48 51 54 56 57 58 59 61 59 58 60 61 62 62 65 66 64 63 62 60 58 58 59 57 57 57 55 55 55 54 52 48 48 47 49 53
35 37 40 41 42 45 48 52 55 57 57 58 58 58 60 60 60 61 61 62 64 66 67 67 68 64 62 61 61 61 62 61 60 57 58 57 55 49 45 47 46 48 52
35 37 38 39 43 47 49 52 54 54 56 57 57 57 58 58 60 61 61 61 62 63 63 64 65 66 64 64 65 66 64 62 62 59 60 60 52 49 47 47 47 46 47
36 36 37 41 44 46 49 51 52 53 53 53 53 54 56 57 58 58 57 56 56 58 57 58 60 63 64 65 67 70 70 69 62 61 60 60 58 55 50 48 49 50 53
34 37 39 41 44 47 49 51 50 48 50 50 52 51 52 54 52 51 49 47 48 49 49 50 51 55 59 61 62 66 71 73 65 63 62 62 60 58 56 52 50 53 55
35 37 39 41 44 45 48 48 48 48 48 49 49 49 49 47 45 45 44 43 43 47 48 49 49 53 58 60 61 61 63 63 65 65 64 63 60 58 56 54 52 53 55
34 37 39 40 42 44 46 46 44 45 46 47 49 49 46 42 38 39 40 42 43 45 49 49 52 55 57 58 58 61 65 65 63 63 62 63 62 59 57 55 54 53 53
35 38 40 40 41 42 45 45 44 43 44 47 48 49 49 41 37 37 39 38 40 40 38 41 49 58 60 60 59 61 62 60 60 62 63 61 58 58 56 54 53 53 53
37 39 40 41 44 43 41 39 40 43 45 45 42 42 42 40 39 37 37 37 36 36 36 37 40 46 49 54 54 53 54 54 57 60 60 55 54 53 55 53 53 51 53
36 38 39 41 43 43 39 39 41 40 39 44 46 46 47 46 41 38 43 42 41 40 44 40 42 42 43 44 47 45 46 49 52 55 55 53 53 49 50 49 51 49 52
35 37 39 41 42 41 41 45 39 40 41 40 43 41 40 41 46 47 47 44 43 42 42 38 40 46 47 47 43 43 44 46 47 47 44 45 45 46 45 45 46 49 52
34 37 39 40 40 41 43 46 49 48 43 39 39 41 41 45 47 47 46 46 44 40 37 36 37 42 44 41 39 39 41 41 41 44 38 36 39 43 45 44 44 46 48
34 36 37 38 38 42 43 44 44 45 46 47 42 42 41 43 45 46 44 41 38 35 34 33 36 40 43 39 37 35 34 36 37 39 39 37 37 39 40 42 42 43 44
34 35 35 37 37 41 41 41 40 40 40 41 42 42 41 43 44 40 40 36 36 35 35 35 34 34 39 36 35 32 28 30 32 34 34 33 34 31 34 37 40 40 40
33 34 35 37 40 40 38 38 38 38 38 38 39 41 43 43 43 41 39 36 35 35 34 34 34 37 38 38 37 31 24 22 25 28 31 33 31 29 30 31 34 35 37
33 34 36 37 39 37 36 36 36 35 35 36 36 37 41 41 40 40 39 38 37 37 36 32 32 36 38 38 36 33 26 23 22 24 25 26 24 25 26 27 29 31 32
31 34 36 37 35 34 34 33 33 32 33 33 33 34 38 37 37 38 38 38 38 38 35 30 27 31 37 36 34 32 29 27 26 24 21 19 18 19 19 20 22 24 25
30 33 34 33 31 31 32 31 30 30 30 29 30 33 34 35 35 36 38 38 39 38 38 36 34 27 35 34 32 31 29 27 25 22 20 18 17 15 15 15 16 18 21
28 29 32 30 30 30 29 29 28 28 26 27 28 30 30 31 32 34 36 36 37 37 37 37 36 37 24 34 32 32 29 27 24 22 19 17 15 14 14 14 14 15 16
28 31 30 29 29 29 29 27 27 25 24 25 26 27 27 27 29 31 33 35 38 37 37 37 37 37 34 32 33 32 30 27 24 21 19 16 14 12 12 11 12 12 12
30 29 29 29 29 28 26 26 25 23 22 22 23 23 24 24 27 27 29 35 36 37 36 36 35 35 35 33 32 31 31 29 25 21 18 15 13 11 10 9 8 8 8
Wind_Direction
325 324 323 323 323 323 321 319 317 316 315 312 311 310 309 308 309 308 307 305 303 300 299 298 296 295 290 287 285 284 282 280 276 278 278 276 273 271 270 268 267 265 265
324 323 322 320 320 319 319 318 317 314 313 311 310 308 307 307 306 305 302 302 300 299 298 297 295 296 294 291 288 284 281 281 278 277 278 276 273 271 269 267 266 265 263
322 321 319 318 317 317 317 316 314 312 310 309 308 304 305 304 303 303 300 298 296 295 294 293 293 293 291 291 290 287 285 282 279 277 277 277 274 273 270 268 265 265 264
321 320 319 319 318 317 317 315 313 312 309 308 306 304 302 302 302 299 297 295 293 292 291 291 290 289 287 287 287 286 285 283 281 277 276 276 274 273 269 267 266 264 263
319 320 319 319 319 318 317 316 315 314 311 309 307 304 302 301 299 298 295 293 291 289 289 289 288 286 285 284 283 281 282 280 279 278 277 275 273 272 268 268 266 266 264
318 318 319 319 319 319 318 317 316 314 313 311 309 307 304 302 301 298 296 293 290 288 286 286 285 285 285 283 282 280 278 277 276 275 275 274 274 272 273 268 266 265 265
319 319 320 321 320 320 319 318 317 315 314 312 310 309 305 304 303 300 297 294 291 288 287 286 284 283 283 282 281 279 277 275 273 273 273 272 273 274 272 269 267 263 264
319 320 322 323 322 322 321 320 319 318 316 314 312 311 308 306 304 301 299 296 293 290 288 287 285 283 282 281 280 278 276 274 272 271 269 271 272 273 271 269 267 267 267
319 322 323 324 323 324 323 323 322 320 319 318 317 315 312 310 308 304 301 298 295 293 292 290 288 285 284 281 279 276 275 273 273 271 270 269 269 268 268 268 265 263 264
321 322 323 324 324 324 325 324 324 323 321 320 318 318 316 313 312 308 306 304 301 299 297 296 293 291 288 284 281 277 274 271 272 271 269 268 267 266 264 261 261 260 261
322 323 324 325 326 326 326 326 325 324 324 323 322 322 320 317 315 311 309 308 306 303 302 300 299 296 292 288 284 281 278 276 272 270 268 266 265 264 262 260 258 257 258
323 324 326 327 328 328 328 328 328 327 326 326 325 323 322 320 320 317 315 312 310 308 306 305 302 298 295 291 288 282 278 276 274 270 266 262 261 261 261 260 259 258 258
324 324 326 328 329 330 330 329 329 330 329 328 326 323 321 324 322 319 317 316 314 313 312 311 307 301 296 293 289 284 281 276 273 270 265 262 260 259 260 260 260 259 258
322 324 326 328 329 331 332 332 331 330 329 329 331 331 330 329 325 324 321 317 315 313 311 310 308 306 302 296 292 287 282 276 271 270 268 263 262 258 256 257 258 258 258
323 325 327 329 330 331 333 332 329 332 333 329 325 326 325 327 329 329 324 324 321 319 318 319 317 311 307 303 297 290 284 277 275 269 267 263 260 259 256 255 255 256 256
323 325 327 329 331 332 330 321 334 333 334 334 331 332 333 332 328 327 326 327 327 326 323 322 321 316 310 306 302 294 286 278 272 271 268 261 259 261 256 255 254 254 254
323 325 327 329 331 330 323 316 313 320 336 339 339 338 337 333 330 329 330 330 332 335 334 333 329 323 315 312 308 299 287 278 271 269 270 268 263 261 257 254 254 254 254
323 325 327 329 330 324 315 316 322 325 326 327 342 342 342 340 337 335 336 339 342 346 346 344 342 335 317 314 310 304 294 280 274 270 271 271 269 263 257 255 253 253 253
322 324 327 328 328 316 312 319 325 330 335 339 342 346 349 344 342 344 343 346 345 346 349 350 350 347 333 325 313 310 304 289 279 275 275 276 275 269 264 260 257 254 252
322 324 325 326 318 310 315 320 326 332 339 344 347 348 349 350 349 349 350 349 348 348 350 352 353 348 338 325 314 314 316 302 287 284 283 283 280 276 269 262 257 254 253
320 322 321 320 307 308 315 321 329 336 342 346 351 355 351 354 355 354 353 352 349 347 351 358 358 348 337 327 322 323 317 311 303 298 296 292 286 278 272 266 261 257 254
320 318 316 306 302 309 316 324 332 339 345 351 356 359 357 1 2 1 359 355 350 348 357 6 11 4 340 331 328 325 323 322 316 312 310 306 297 287 278 270 264 259 254
319 314 307 295 302 311 318 327 336 343 351 358 0 1 3 6 8 7 3 358 347 345 350 2 7 21 360 337 336 333 330 327 326 324 320 314 306 298 288 277 268 261 256
316 309 291 293 302 312 322 332 340 349 357 1 2 5 7 10 11 10 9 6 344 345 349 357 3 358 30 340 336 343 341 335 331 329 326 321 314 305 295 285 276 269 262
307 285 283 290 299 310 320 334 343 355 0 3 4 6 9 12 12 12 10 10 355 345 346 351 359 353 340 336 342 348 1 355 345 339 334 331 325 317 308 296 284 276 269
281 275 278 288 301 312 327 335 346 355 0 3 4 7 9 11 9 12 11 359 3 347 345 349 347 344 346 346 346 348 2 14 9 358 351 348 341 330 323 315 305 291 280